Regional Weather Roundup
Issued by NWS

Home | Current Version | Previous Version | Graphics & Text | Print | Product List | Glossary On
Versions: 1 2 3 4 5 6 7 8 9 10 11 12 13 14 15 16 17 18 19 20 21 22 23 24 25 26 27 28 29 30 31 32 33 34 35 36 37 38 39 40 41 42 43 44 45 46 47 48 49 50
000
ASUS45 KBOI 240310
RWRID

IDAHO REGIONAL WEATHER ROUNDUP
NATIONAL WEATHER SERVICE BOISE ID
800 PM MST FRI FEB 23 2018

NOTE: "FAIR" INDICATES FEW OR NO CLOUDS BELOW 12000 FEET
WITH NO SIGNIFICANT WEATHER AND/OR OBSTRUCTIONS TO VISIBILITY

IDZ012-014-240400-
SOUTHWEST IDAHO


CITY           SKY/WX    TMP DP  RH WIND       PRES   REMARKS
BOISE          CLOUDY    24  13  62 SE6       30.25R WCI  17
CALDWELL       CLOUDY    31  14  49 S6        30.27R WCI  25
MOUNTAIN HOME  MOCLDY    25  15  63 CALM      30.25R
$$

IDZ016-017-240400-
SOUTHCENTRAL IDAHO


CITY           SKY/WX    TMP DP  RH WIND       PRES   REMARKS
BURLEY         CLEAR     15   6  67 SW10      30.17R WCI   2
JEROME         CLEAR     21   9  59 SW10      30.19R WCI  10
TWIN FALLS     CLEAR     15   8  73 SW12      30.19R WCI   2
$$

IDZ019>023-240400-
SOUTHEAST IDAHO


CITY           SKY/WX    TMP DP  RH WIND       PRES   REMARKS
IDAHO FALLS    MOCLDY    17  12  80 S17G25    30.09S WCI   1
POCATELLO      PTCLDY    19  10  68 SW17      30.14S WCI   4
REXBURG        PTCLDY    16  11  80 SW15G24   30.07R WCI   1
$$

IDZ006-010-011-018-031-032-240400-
CENTRAL IDAHO MOUNTAINS


CITY           SKY/WX    TMP DP  RH WIND       PRES   REMARKS
MCCALL         CLOUDY    16  10  77 CALM      30.09S
HAILEY         CLEAR     12   7  79 NW5       30.09S WCI   4
STANLEY          N/A      9   0  67 S3        30.02S
SALMON         CLEAR     20  11  68 S5        30.07F WCI  13
CHALLIS        CLEAR     24   0  35 W8        30.01S WCI  15
$$

IDZ002-004-006-007-026-240400-
NORTHERN IDAHO


CITY           SKY/WX    TMP DP  RH WIND       PRES   REMARKS
LEWISTON       LGT SNOW  29  22  75 E7        30.26S WCI  22
LOWELL           N/A     29  23  78 CALM      30.28S
COEUR D`ALENE  LGT SNOW  21  19  92 SW7       30.17S FOG     WCI  12
MULLAN PASS    LGT SNOW   6   3  87 VRB6      29.90F FOG     WCI  -4
$$



USA.gov is the U.S. government's official web portal to all federal, state and local government web resources and services.